User: anonymous   Login
Location: Girdwood
(60.9430°N, 149.1660°W)
Time: 23:04:06
(UTC-08:00)
Language:

Iridium 86 - Orbit

View from above orbital plane
View from above orbital plane
View from above satellite
View from above satellite

Ground track
Ground track

The orbit data is extracted from the following two-line orbital elements,

1 25528U 98066B   18109.88541475 +.00000162 +00000-0 +50831-4 0  9992
2 25528 086.3997 221.5364 0003007 084.6792 275.4747 14.34217008023095
Epoch (UTC): 19 April 2018 21:14:59
Eccentricity: 0.0003007
inclination: 86.3997°
perigee height: 775 km
apogee height: 780 km
right ascension of ascending node: 221.5364°
argument of perigee: 84.6792°
revolutions per day: 14.34217008
mean anomaly at epoch: 275.4747°
orbit number at epoch: 2309

The dashed part of the orbit path shows where the satellite is in the earth's shadow,  

DLR